Regional Weather Roundup
Issued by NWS

Home | Current Version | Previous Version | Graphics & Text | Print | Product List | Glossary Off
Versions: 1 2 3 4 5 6 7 8 9 10 11 12 13 14 15 16 17 18 19 20 21 22 23 24 25 26 27 28 29 30 31 32 33 34 35 36 37 38 39 40 41 42 43 44 45 46 47 48 49 50

000
ASUS43 KTOP 141759
RWRKS

WEATHER ROUNDUP FOR KANSAS
NATIONAL WEATHER SERVICE GOODLAND KS
1200 PM CST THU DEC 14 2017

NOTE:  "FAIR" INDICATES FEW OR NO CLOUDS BELOW 12,000 FEET WITH NO
SIGNIFICANT WEATHER AND/OR OBSTRUCTIONS TO VISIBILITY.

KSZ001>006-013>018-027>032-041>047-141900-
NORTHWEST KANSAS

CITY           SKY/WX    TMP DP  RH WIND       PRES   REMARKS
GOODLAND       CLOUDY    41  24  51 NW26G36   30.14F
6HR MIN TEMP:  32; 6HR MAX TEMP:  42; 6HR PCP: TRACE;

HAYS           CLOUDY    45  29  53 NW16      30.13F
HILL CITY      CLOUDY    46  29  51 NW16      30.13F
6HR MIN TEMP:  31; 6HR MAX TEMP:  46;

RUSSELL        PTSUNNY   48  31  51 NW15      30.11F
6HR MIN TEMP:  26; 6HR MAX TEMP:  48;

$$

KSZ061>065-074>080-084>089-141900-
SOUTHWEST KANSAS

CITY           SKY/WX    TMP DP  RH WIND       PRES   REMARKS
DODGE CITY     SUNNY     48  28  46 NW16G30   30.16F
6HR MIN TEMP:  34; 6HR MAX TEMP:  48;

GARDEN CITY    CLOUDY    44  26  49 NW16G26   30.16F
6HR MIN TEMP:  34; 6HR MAX TEMP:  44;

GREAT BEND     CLOUDY    45  27  49 NW13      30.13F
LIBERAL        MOSUNNY   44  30  57 NW16      30.19F
$$

KSZ066>073-081>083-090>101-141900-
SOUTHEAST KANSAS

CITY           SKY/WX    TMP DP  RH WIND       PRES   REMARKS
CHANUTE        CLOUDY    42  27  55 N8        30.12F
6HR MIN TEMP:  29; 6HR MAX TEMP:  42;

COFFEYVILLE    CLOUDY    42  29  59 N9        30.14S
6HR MIN TEMP:  31; 6HR MAX TEMP:  43;

HUTCHINSON     SUNNY     47  26  44 W9        30.13F
6HR MIN TEMP:  30; 6HR MAX TEMP:  47;

MEDICINE LODGE   N/A     50  24  36 NW12G23   30.15F
PARSONS        CLOUDY    42  29  59 NW8       30.14F
6HR MIN TEMP:  27; 6HR MAX TEMP:  42;

WICHITA INTL   MOSUNNY   47  27  45 N9        30.14F
6HR MIN TEMP:  35; 6HR MAX TEMP:  47;

WICHITA JABRA  SUNNY     46  26  45 N14       30.13F
6HR MIN TEMP:  30; 6HR MAX TEMP:  46;

WICHITA MCCONL SUNNY     45  24  44 NW8       30.13F
WINFIELD       SUNNY     47  26  44 N9        30.16F
6HR MIN TEMP:  32; 6HR MAX TEMP:  47;

$$

KSZ007>012-019>026-033>040-048>060-102>105-141900-
NORTHEAST KANSAS

CITY           SKY/WX    TMP DP  RH WIND       PRES   REMARKS
CONCORDIA      PTSUNNY   43  27  53 NW10      30.10F
6HR MIN TEMP:  29; 6HR MAX TEMP:  43;

EMPORIA        PTSUNNY   41  24  51 N10       30.11F
6HR MIN TEMP:  31; 6HR MAX TEMP:  44;

LAWRENCE       CLOUDY    41  26  55 NW8       30.10F
6HR MIN TEMP:  35; 6HR MAX TEMP:  42;

MANHATTAN      SUNNY     47  26  44 NW7       30.11F
6HR MIN TEMP:  33; 6HR MAX TEMP:  47;

OLATHE IND     CLOUDY    39  26  59 N10       30.10F WCI  32
6HR MIN TEMP:  34; 6HR MAX TEMP:  39;

OLATHE EXE     CLOUDY    38  25  59 NW7       30.09F
6HR MIN TEMP:  35; 6HR MAX TEMP:  38;

SALINA         CLOUDY    47  27  45 NW10      30.13F
6HR MIN TEMP:  29; 6HR MAX TEMP:  47;

TOPEKA BILLARD PTSUNNY   43  26  51 W10       30.10F
6HR MIN TEMP:  36; 6HR MAX TEMP:  44;

TOPEKA FORBES  CLOUDY    43  25  49 NW12      30.09F
6HR MIN TEMP:  36; 6HR MAX TEMP:  43;

$$



USA.gov is the U.S. government's official web portal to all federal, state and local government web resources and services.